Find Vladivostok-1

NORAD ID: 61750 Int'l Des: NNA 2024-199 Owner: DVFU Country: RU operational
LEOCIRCULARRETROGRADESSO

当前视图

正在加载3D地球...

About Vladivostok-1

Vladivostok-1 (NORAD 61750) is a satellite launched Nov 4, 2024 by DVFU of RU. It operates in LEO, CIRCULAR, RETROGRADE, SSO orbit with a mass of 10.00 kg.

即将过境

Passes for default location (London). Set your location on the main map for personalized predictions.

高度历史

Loading altitude history...

两行轨道根数

1 61750U 24199R 26195.14886201 .00027219 00000-0 37485-3 0 9998
2 61750 97.2914 71.4126 0007184 163.7562 196.3925 15.57190607141747
Epoch: Jul 14, 2026 • Age: 6 hours

当前状态

高度 424.1 km
远地点 / 近地点 N/A
速度 7.65 km/s
星下点 -66.58°S, 14.7°E
发射日期 Nov 4, 2024
运行时间 1.6 years
类型 other

技术详情

分类 Payload
质量 10.00 kg
干质量 10.00 kg
总质量 10.00 kg
长度 0.30 m
直径 0.20 m
跨度 0.30 m
形状 Box
制造商 DVFU/STTS
平台类型 Cubesat 8U
阶段状态 In Orbit
所有者/国家 DVFU/RU

Most Searched